Terug naar catalogus

ARIANE 3 R/B

ActiefHEO
NORAD 15388·ROCKET BODY·🇫🇷 France

Gelanceerd Nov 10, 1984 vanaf Guiana Space Centre

Loading…

Volgende Passages (komende 24 uur)

TLE

VersSource: Space-Track

Epoch: Sep 14, 2026, 03:10 UTC

1 15388U 84114C   26257.13227280  .00001099  00000-0  12826-2 0  9990
2 15388   7.2838  54.0774 6870499 326.3969   4.6567  2.76094089307578

Volg ARIANE 3 R/B in realtime met AllMySat

Download on the App Store